This demonstration page uses our WeatherBlox Daily Observations layout. Learn more.

Left ArrowRight Arrow

39.08367, -84.50855

Hourly Observations for May 28, 2020

Temp ( °F °C ) Dew Point ( °F °C ) Humidity (%) Winds ( mph kmh ) Pressure ( in mb ) Visibility ( mi km ) Precip ( " mm )
12:53 am 00:53 Partly Cloudy 69 20.6 67 19.4 93 93 Calm 29.94 1014 10 16.0934 0 0
1:53 am 01:53 Cloudy with Light Rain 69 20.6 68 20 96 96 Calm 29.93 1014 9 14.48406 0.02 0.508
2:49 am 02:49 Cloudy with Heavy Rain 70 21 68 20 94 94 Calm 29.94 1014 2 3.21868 0.15 3.81
2:53 am 02:53 Cloudy with Heavy Rain 69 20.6 69 20.6 100 100 SSW 3 6 29.94 1014 1.75 2.816345 0.17 4.318
3:01 am 03:01 Cloudy with Rain 69 20.6 69 20.6 100 100 SW 3 6 29.94 1014 2.5 4.02335 0.03 0.762
3:24 am 03:24 Cloudy with Rain 69 20.6 68 20 96 96 Calm 29.94 1014 2.5 4.02335 0.12 3.048
3:35 am 03:35 Cloudy with Rain 69 20.6 68 20 96 96 Calm 29.94 1014 4 6.43736 0.14 3.556
3:44 am 03:44 Cloudy with Light Rain 69 20.6 68 20 96 96 Calm 29.94 1014 8 12.87472 0.14 3.556
3:53 am 03:53 Cloudy with Light Rain 69 20.6 68 20 96 96 W 3 6 29.93 1014 4 6.43736 0.15 3.81
4:26 am 04:26 Cloudy with Light Rain 69 20.6 68 20 96 96 NNE 3 6 29.92 1013 5 8.0467 0.06 1.524
4:53 am 04:53 Cloudy 69 20.6 69 20.6 100 100 NE 5 7 29.91 1013 9 14.48406 0.07 1.778
5:53 am 05:53 Cloudy 69 20.6 68 20 96 96 Calm 29.93 1013 9 14.48406 0 0
6:53 am 06:53 Cloudy with Light Rain 69 20.6 68 20 96 96 Calm 29.93 1014 6 9.65604 0.01 0.254
7:53 am 07:53 Cloudy 70 21.1 66 18.9 87 87 Calm 29.94 1014 10 16.0934 0.001 0.001
8:53 am 08:53 Mostly Cloudy 71 21.7 67 19.4 87 87 VRB 5 7 29.95 1014 10 16.0934 0 0
9:21 am 09:21 Mostly Cloudy 72 22.2 68 20 87 87 S 6 9 29.94 1014 10 16.0934 0 0
9:53 am 09:53 Cloudy 72 22.2 68 20 87 87 S 8 13 29.95 1014 10 16.0934 0 0
10:53 am 10:53 Mostly Cloudy 75 23.9 68 20 79 79 SW 12 19 29.95 1014 10 16.0934 0.03 0.762
11:53 am 11:53 Mostly Cloudy 77 25 65 18.3 66 66 SW 14 22 29.96 1015 10 16.0934 0 0
12:53 pm 12:53 Mostly Cloudy 77 25 65 18.3 66 66 SSW 12 19 29.97 1015 10 16.0934 0 0
1:53 pm 13:53 Partly Cloudy 79 26.1 65 18.3 62 62 SSW 13 20 29.96 1014 10 16.0934 0 0
2:53 pm 14:53 Partly Cloudy 80 26.7 65 18.3 60 60 S 10 17 29.93 1014 10 16.0934 0 0
3:53 pm 15:53 Partly Cloudy 82 27.8 64 17.8 55 55 S 13 20 29.91 1013 10 16.0934 0 0
4:53 pm 16:53 Partly Cloudy 82 27.8 64 17.8 55 55 S 8 13 29.89 1012 10 16.0934 0 0
5:53 pm 17:53 Mostly Cloudy 82 27.8 63 17.2 53 53 SW 6 9 29.88 1012 10 16.0934 0 0
6:53 pm 18:53 Mostly Cloudy 80 26.7 62 16.7 54 54 SW 10 17 29.88 1012 10 16.0934 0 0
7:53 pm 19:53 Cloudy 77 25 65 18.3 66 66 S 3 6 29.89 1012 10 16.0934 0 0
8:53 pm 20:53 Cloudy 74 23.3 68 20 82 82 S 3 6 29.9 1012 10 16.0934 0 0
9:53 pm 21:53 Mostly Cloudy 73 22.8 65 18.3 76 76 SSW 5 7 29.91 1013 10 16.0934 0 0
10:53 pm 22:53 Mostly Cloudy 71 21.7 66 18.9 84 84 SSW 6 9 29.91 1013 10 16.0934 0 0
11:53 pm 23:53 Partly Cloudy 70 21.1 65 18.3 84 84 S 6 9 29.92 1013 10 16.0934 0 0

Powered by AerisWeather